TimeEST,TemperatureF,Dew PointF,Humidity,Sea Level PressureIn,VisibilityMPH,Wind Direction,Wind SpeedMPH,Gust SpeedMPH,PrecipitationIn,Events,Conditions,WindDirDegrees,DateUTC
12:15 AM,22.8,16.5,77,30.39,7.0,NNW,4.6,-,N/A,Snow,Light Snow,330,2014-02-06 05:15:00
12:35 AM,22.8,16.5,77,30.39,7.0,NNW,5.8,-,N/A,Snow,Light Snow,340,2014-02-06 05:35:00
12:55 AM,22.8,16.5,77,30.38,10.0,North,5.8,-,N/A,Snow,Light Snow,350,2014-02-06 05:55:00
1:15 AM,22.8,16.7,77,30.39,10.0,Calm,Calm,-,N/A,,Overcast,0,2014-02-06 06:15:00
1:35 AM,22.8,16.5,77,30.40,10.0,NW,3.5,-,N/A,,Overcast,320,2014-02-06 06:35:00
1:55 AM,22.8,16.5,77,30.39,10.0,NNW,4.6,-,N/A,,Overcast,330,2014-02-06 06:55:00
2:15 AM,22.8,16.5,77,30.40,4.0,NW,3.5,-,N/A,Snow,Light Snow,310,2014-02-06 07:15:00
2:35 AM,21.6,15.8,78,30.39,5.0,Calm,Calm,-,N/A,Snow,Light Snow,0,2014-02-06 07:35:00
2:55 AM,21.6,16.2,80,30.40,4.0,NW,10.4,-,N/A,Snow,Light Snow,320,2014-02-06 07:55:00
3:15 AM,20.8,14.0,75,30.40,7.0,NW,13.8,-,N/A,Snow,Light Snow,310,2014-02-06 08:15:00
3:35 AM,20.3,12.7,73,30.40,10.0,NNW,9.2,-,N/A,Snow,Light Snow,330,2014-02-06 08:35:00
3:55 AM,19.0,11.8,74,30.38,7.0,NNW,8.1,-,N/A,Snow,Light Snow,330,2014-02-06 08:55:00
4:15 AM,19.0,12.0,74,30.39,10.0,NW,4.6,-,N/A,Snow,Light Snow,320,2014-02-06 09:15:00
4:35 AM,19.0,11.7,73,30.40,7.0,Calm,Calm,-,N/A,Snow,Light Snow,0,2014-02-06 09:35:00
4:55 AM,18.5,11.1,73,30.40,10.0,Calm,Calm,-,N/A,,Overcast,0,2014-02-06 09:55:00
5:15 AM,17.6,10.8,75,30.41,10.0,NW,6.9,-,N/A,,Overcast,310,2014-02-06 10:15:00
5:35 AM,16.3,9.7,75,30.41,10.0,Calm,Calm,-,N/A,,Mostly Cloudy,0,2014-02-06 10:35:00
5:55 AM,15.3,8.8,76,30.42,10.0,Calm,Calm,-,N/A,,Scattered Clouds,0,2014-02-06 10:55:00
6:15 AM,15.3,9.0,76,30.41,10.0,Calm,Calm,-,N/A,,Clear,0,2014-02-06 11:15:00
6:35 AM,14.9,9.0,77,30.43,10.0,Calm,Calm,-,N/A,,Clear,0,2014-02-06 11:35:00
6:55 AM,13.3,8.1,80,30.43,10.0,Calm,Calm,-,N/A,,Clear,0,2014-02-06 11:55:00
7:15 AM,12.0,7.5,82,30.43,10.0,Calm,Calm,-,N/A,,Clear,0,2014-02-06 12:15:00
7:35 AM,10.8,6.8,84,30.43,10.0,Calm,Calm,-,N/A,,Clear,0,2014-02-06 12:35:00
7:55 AM,10.2,5.9,83,30.43,10.0,Calm,Calm,-,N/A,,Clear,0,2014-02-06 12:55:00
8:15 AM,7.7,3.2,82,30.43,10.0,Calm,Calm,-,N/A,,Clear,0,2014-02-06 13:15:00
8:35 AM,9.3,4.3,80,30.45,10.0,Calm,Calm,-,N/A,,Clear,0,2014-02-06 13:35:00
8:55 AM,12.7,8.4,83,30.44,10.0,Calm,Calm,-,N/A,,Clear,0,2014-02-06 13:55:00
9:15 AM,12.9,8.6,83,30.46,10.0,Calm,Calm,-,N/A,,Clear,0,2014-02-06 14:15:00
9:35 AM,15.3,10.4,81,30.46,10.0,SW,4.6,-,N/A,,Clear,220,2014-02-06 14:35:00
9:55 AM,15.3,9.9,79,30.47,10.0,WSW,3.5,-,N/A,,Clear,240,2014-02-06 14:55:00
10:15 AM,17.6,10.8,75,30.46,10.0,Calm,Calm,-,N/A,,Clear,0,2014-02-06 15:15:00
10:35 AM,18.3,10.2,71,30.46,10.0,Calm,Calm,-,N/A,,Scattered Clouds,0,2014-02-06 15:35:00
10:55 AM,19.6,10.6,68,30.46,10.0,Calm,Calm,-,N/A,,Clear,0,2014-02-06 15:55:00
11:15 AM,21.4,11.1,65,30.46,10.0,South,3.5,-,N/A,,Scattered Clouds,190,2014-02-06 16:15:00
11:35 AM,22.8,11.5,62,30.47,10.0,WSW,8.1,-,N/A,,Overcast,240,2014-02-06 16:35:00
11:55 AM,22.1,10.6,61,30.47,10.0,WSW,6.9,-,N/A,,Mostly Cloudy,250,2014-02-06 16:55:00
12:15 PM,23.7,10.9,58,30.46,10.0,SSW,6.9,-,N/A,,Scattered Clouds,210,2014-02-06 17:15:00
12:35 PM,22.8,10.9,60,30.45,10.0,West,8.1,-,N/A,,Overcast,270,2014-02-06 17:35:00
12:55 PM,22.8,11.7,62,30.43,10.0,WSW,6.9,-,N/A,Snow,Light Snow,250,2014-02-06 17:55:00
1:15 PM,22.8,10.9,60,30.42,10.0,West,10.4,17.3,N/A,,Overcast,270,2014-02-06 18:15:00
1:35 PM,22.8,11.3,61,30.41,10.0,West,11.5,-,N/A,,Overcast,280,2014-02-06 18:35:00
1:55 PM,22.8,12.0,63,30.41,10.0,WSW,9.2,-,N/A,,Overcast,250,2014-02-06 18:55:00
2:15 PM,22.8,12.0,63,30.40,10.0,West,10.4,-,N/A,Snow,Light Snow,270,2014-02-06 19:15:00
2:35 PM,22.8,11.3,61,30.40,10.0,West,11.5,18.4,N/A,Snow,Light Snow,260,2014-02-06 19:35:00
2:55 PM,22.8,12.2,64,30.40,7.0,West,9.2,18.4,N/A,Snow,Light Snow,280,2014-02-06 19:55:00
3:15 PM,21.6,12.9,69,30.40,2.0,WNW,10.4,-,N/A,Snow,Light Snow,290,2014-02-06 20:15:00
3:35 PM,21.6,10.8,63,30.40,10.0,West,13.8,-,N/A,Snow,Light Snow,270,2014-02-06 20:35:00
3:55 PM,20.8,9.5,62,30.40,10.0,West,12.7,-,N/A,,Overcast,280,2014-02-06 20:55:00
4:15 PM,21.0,9.1,60,30.41,10.0,WNW,11.5,17.3,N/A,,Mostly Cloudy,290,2014-02-06 21:15:00
4:35 PM,20.3,9.0,62,30.41,10.0,WNW,12.7,-,N/A,Snow,Light Snow,300,2014-02-06 21:35:00
4:55 PM,19.2,7.7,61,30.40,10.0,West,11.5,-,N/A,,Clear,280,2014-02-06 21:55:00
5:15 PM,19.0,7.5,61,30.40,10.0,West,8.1,-,N/A,,Clear,280,2014-02-06 22:15:00
5:35 PM,17.6,6.4,62,30.40,10.0,West,9.2,-,N/A,,Clear,280,2014-02-06 22:35:00
5:55 PM,17.6,6.8,63,30.40,10.0,West,6.9,-,N/A,,Clear,280,2014-02-06 22:55:00
6:15 PM,17.4,7.0,64,30.40,10.0,WNW,5.8,-,N/A,,Clear,300,2014-02-06 23:15:00
6:35 PM,15.8,5.7,64,30.41,10.0,West,5.8,-,N/A,,Clear,280,2014-02-06 23:35:00
6:55 PM,16.0,5.9,65,30.41,10.0,West,5.8,-,N/A,,Clear,280,2014-02-06 23:55:00
7:15 PM,15.3,5.7,66,30.41,10.0,WNW,5.8,-,N/A,,Scattered Clouds,290,2014-02-07 00:15:00
7:35 PM,15.3,6.1,67,30.42,10.0,WNW,5.8,-,N/A,,Mostly Cloudy,300,2014-02-07 00:35:00
7:55 PM,14.0,5.0,67,30.43,10.0,WNW,5.8,-,N/A,,Overcast,300,2014-02-07 00:55:00
8:15 PM,13.5,3.6,65,30.44,10.0,WNW,9.2,-,N/A,,Overcast,300,2014-02-07 01:15:00
8:35 PM,12.7,1.9,62,30.43,10.0,WNW,6.9,-,N/A,,Overcast,290,2014-02-07 01:35:00
8:55 PM,12.7,1.4,61,30.44,10.0,WNW,4.6,-,N/A,,Mostly Cloudy,290,2014-02-07 01:55:00
9:15 PM,12.7,1.4,61,30.44,10.0,WNW,5.8,-,N/A,,Scattered Clouds,300,2014-02-07 02:15:00
9:35 PM,12.7,-1.1,54,30.45,10.0,WNW,9.2,-,N/A,,Clear,300,2014-02-07 02:35:00
9:55 PM,12.7,-2.4,51,30.45,10.0,West,4.6,-,N/A,,Clear,280,2014-02-07 02:55:00
10:15 PM,10.2,-5.1,50,30.44,10.0,WNW,5.8,-,N/A,,Clear,290,2014-02-07 03:15:00
10:35 PM,10.2,-4.0,53,30.44,10.0,WNW,3.5,-,N/A,,Clear,300,2014-02-07 03:35:00
10:55 PM,9.9,-4.0,54,30.44,10.0,WNW,3.5,-,N/A,,Clear,290,2014-02-07 03:55:00
11:15 PM,9.0,-5.1,53,30.43,10.0,Calm,Calm,-,N/A,,Scattered Clouds,0,2014-02-07 04:15:00
11:35 PM,7.7,-5.4,55,30.44,10.0,WSW,3.5,-,N/A,,Scattered Clouds,250,2014-02-07 04:35:00
11:55 PM,7.7,-4.9,56,30.44,10.0,Calm,Calm,-,N/A,,Clear,0,2014-02-07 04:55:00